Regional Weather Roundup
Issued by NWS Charleston, SC

Current Version | Previous Version | Graphics & Text | Print | Product List | Glossary On
Versions: 1 2 3 4 5 6 7 8 9 10 11 12 13 14 15 16 17 18 19 20 21 22 23 24 25 26 27 28 29 30 31 32 33 34 35 36 37 38 39 40 41 42 43 44 45 46 47 48 49 50
000
ASUS42 KCHS 280927
RWRCHS

REGIONAL WEATHER ROUNDUP
NATIONAL WEATHER SERVICE CHARLESTON SC
500 AM EDT THU MAY 28 2015

NOTE: "FAIR" INDICATES FEW OR NO CLOUDS BELOW 12,000 FEET WITH NO
SIGNIFICANT WEATHER AND/OR OBSTRUCTIONS TO VISIBILITY.

NOT ALL STATIONS ARE QUALITY CONTROLLED BY THE NATIONAL
WEATHER SERVICE. USE DATA WITH CAUTION...ESPECIALLY
DEWPOINT OBSERVATIONS.

SCZ027-030-031-034>040-042>050-281000-
...SOUTHEAST SOUTH CAROLINA...

CITY           SKY/WX    TMP DP  RH WIND       PRES   REMARKS
N CHARLESTON   CLEAR     67  66  97 CALM      30.18R
WATERFRONT PAR   N/A     74  70  87 CALM      30.14F
MOUNT PLEASANT FAIR      66  66 100 CALM      30.19R
JOHNS ISLAND   SUNNY     66  66 100 CALM      30.18R
PINOPOLIS        N/A     72  66  83 VRB2      30.11R
MONCKS CORNER  FAIR      66  64  94 CALM      30.18S FOG
SUMMERVILLE    FAIR      64  64 100 CALM      30.19S
BEAUFORT MCAS  CLEAR     69  66  90 CALM      30.17S
BEAUFORT ARPT  FAIR      70  70 100 CALM      30.17S FOG
HILTON HEAD IS CLEAR     66  66 100 CALM      30.18S
WALTERBORO     SUNNY     63  63 100 CALM      30.19S
ALLENDALE      FAIR      66  66 100 CALM      30.18R FOG

...SOUTHERN MIDLANDS AND PEE DEE...

CITY           SKY/WX    TMP DP  RH WIND       PRES   REMARKS
GEORGETOWN     NOT AVBL
KINGSTREE      NOT AVBL
ORANGEBURG     PTCLDY    65  63  93 CALM      30.19R FOG
BARNWELL       FAIR      66  64  94 CALM      30.19S
AIKEN          PTSUNNY   68  64  88 CALM      30.23R
MANNING        FAIR      63  61  94 CALM      30.19S
COLUMBIA       PTCLDY    69  65  86 CALM      30.18S
SUMTER         CLEAR     66  66 100 CALM      30.18R FOG
FLORENCE       PTCLDY    69  67  93 CALM      30.19S
MYRTLE BEACH   PTCLDY    72  64  78 SE7       30.22R
N MYRTLE BEACH CLEAR     73  64  73 SE5       30.19S

$$

GAZ063-065-086>088-099>101-113>116-118-119-134>141-150-281000-
...SOUTHEAST GEORGIA...

CITY           SKY/WX    TMP DP  RH WIND       PRES   REMARKS
SAVANNAH ARPT  CLEAR     66  65  96 N3        30.17S
HUNTER AAF     CLEAR     68  68  99 CALM      30.15R
FORT STEWART   CLEAR     65  63  93 CALM      30.15R
STATESBORO     CLEAR     64  32  30 CALM      30.18R
SYLVANIA       SUNNY     65  65 100 CALM      30.19R
CLAXTON        FAIR      61  61 100 CALM      30.17S

...CSRA...CENTRAL AND FAR SOUTHEAST GEORGIA...

CITY           SKY/WX    TMP DP  RH WIND       PRES   REMARKS
THOMSON        MOCLDY    71  71 100 CALM      30.22F
AUGUSTA-BUSH   CLOUDY    68  67  96 CALM      30.17S
AUGUSTA-DANIEL CLOUDY    73  66  78 SE5       30.19S
SWAINSBORO     FAIR     N/A N/A N/A CALM      30.19R
VIDALIA        PTCLDY    66  64  94 CALM      30.17S
EASTMAN        FAIR      67  67 100 CALM      30.19R FOG
HAZLEHURST     FAIR      67  67 100 CALM      30.16R
ALMA           CLEAR     63  62  97 CALM      30.16R FOG
WAYCROSS       CLEAR     66  66 100 CALM      30.16R
JESUP          FAIR      68  64  88 CALM      30.16S
BAXLEY         FAIR      68  64  88 CALM      30.15S
BRUNSWICK        N/A     64  63  94 CALM      30.16S
SAINT SIMONS   NOT AVBL

$$

SCZ027-028-034-036>038-045-046-048>050-GAZ119-141-281000-
...LAKE AND SUPPLEMENTAL COASTAL OBSERVATIONS...

STATION/POSITION TIME  TEMP    WIND        PRES    WAVE   SWELL
                       AIR SEA DIR/SP/G            HT/PER HT/PER/DIR
                 (UTC) (F)     (DEG/KT/KT) (MB)    (FT/S) (FT/S/D)
UPR LAKE MARION  NOT AVBL
WINYAH BAY       0800   73     120/  3     1021.0
LAKE MURRAY      0800   73     200/  6/  7 1021.3F
ACE BASIN NERRS  NOT AVBL
FORT PULASKI     0900   74 79  120/  2/  2 1022.0R
SAPELO ISLAND    0900   67     100/  1     1021.0S

$$

ANZ835-935-AMZ111-154-330-350-352-354-370-450-454-472-281000-
...C-MAN AND BUOY OBSERVATIONS...

STATION/POSITION TIME  TEMP    WIND        PRES    WAVE   SWELL
                       AIR SEA DIR/SP/G            HT/PER HT/PER/DIR
                 (UTC) (F)     (DEG/KT/KT) (MB)    (FT/S) (FT/S/D)
BUOY 41004       0850   76 78   90/  6/  8 1021.5R   3/ 7   3/ 7
BUOY 41008       0850   77 78  110/  4/  6 1021.4S   3/ 8   3/100/ 8
FOLLY BEACH CMAN 0900   76     110/  2/  3 1022.0R
CAPERS NEARSHORE 0808   76     120/  4/  6 1021.8F
FRIPP NEARSHORE  0800   77     180/  4/  6 1021.2F


STATION/POSITION TIME  TEMP    WIND        PRES    WAVE   SWELL
                       AIR SEA DIR/SP/G            HT/PER HT/PER/DIR
                 (UTC) (F)     (DEG/KT/KT) (MB)    (FT/S) (FT/S/D)
5E ST. MARYS GA  0821      79                N/A     3/ 7
FRYING PAN BUOY  0850   75 75  120/  6/  8 1023.2F   3/ 7   3/120/ 7
BUOY 41025       0850   73 77  190/  8/ 10 1023.8F   3/ 8   3/130/ 8
CAPE LOOKOUT NC  0900   73     160/  5/  7 1023.3R
BUOY 41002       0850   73 74   80/ 10/ 12 1022.9S   5/ 8   5/100/ 8
BUOY 41010       0820   76 80   70/ 12/ 16 1020.1F
ST AUGUSTINE FL  0900   76 78  110/ 11/ 12 1021.0R


$$



USA.gov is the U.S. government's official web portal to all federal, state and local government web resources and services.